Location: Wayland
(32.6094°N, 98.8289°W)
Time: 04:09:55
(UTC+00:00)

ACS3 Solar Sail - Visible Passes

Search period start: 14 July 2024 00:00
Search period end: 24 July 2024 00:00
Orbit: 992 x 1023 km, 97.4° (Epoch: 13 July)

Date Brightness Start Highest point End Pass type
(mag) Time Alt. Az. Time Alt. Az. Time Alt. Az.
14 Jul 6.6 02:25:56 10° E 02:29:19 15° ENE 02:32:42 10° NNE visible
14 Jul 5.0 04:10:33 42° S 04:12:42 69° W 04:18:55 10° NNW visible
15 Jul 5.8 03:00:02 19° ESE 03:03:18 31° ENE 03:08:37 10° N visible
15 Jul 6.0 04:45:23 28° SW 04:47:14 33° W 04:52:48 10° NNW visible
16 Jul 4.9 03:34:51 35° SE 03:37:29 62° ENE 03:43:37 10° N visible
16 Jul 6.9 05:20:12 14° WSW 05:21:57 16° W 05:25:33 10° NW visible
17 Jul 6.5 02:24:53 10° E 02:28:25 16° ENE 02:31:58 10° NNE visible
17 Jul 5.0 04:09:40 41° SSW 04:11:51 67° W 04:18:03 10° NNW visible
18 Jul 5.7 02:59:09 20° ESE 03:02:25 32° ENE 03:07:49 10° N visible
18 Jul 6.1 04:44:30 27° SW 04:46:22 32° W 04:51:53 10° NNW visible
19 Jul 4.9 03:33:59 35° SE 03:36:37 64° ENE 03:42:46 10° N visible
19 Jul 6.9 05:19:20 14° WSW 05:21:06 15° W 05:24:32 10° WNW visible
20 Jul 6.5 02:23:50 10° ESE 02:27:32 17° ENE 02:31:13 10° NNE visible
20 Jul 5.1 04:08:49 41° SSW 04:10:58 64° W 04:17:10 10° NNW visible
21 Jul 5.7 02:58:17 21° ESE 03:01:31 33° ENE 03:06:59 10° N visible
21 Jul 6.1 04:43:37 26° SW 04:45:31 31° W 04:50:58 10° NW visible
22 Jul 4.8 03:33:06 36° SE 03:35:43 67° ENE 03:41:55 10° N visible
22 Jul 7.0 05:18:28 13° WSW 05:20:15 14° W 05:23:30 10° WNW visible
23 Jul 6.4 02:22:49 10° ESE 02:26:37 17° ENE 02:30:27 10° NNE visible
23 Jul 5.1 04:07:56 40° SSW 04:10:06 62° W 04:16:17 10° NNW visible
